GW7918 Weather Reports


Display with metric or nautical units.
time (UTC)temp
F
wind
direction
speed
MPH
gust
MPH
rain 1hr
in
rain 24hr
in
rain mn
in
humidity
%
barometer
mb
20260902094812 89 146 1.0 3.0 0.00 0.00 0.00 77 1010.8
20260902094312 89 168 3.0 5.0 0.00 0.00 0.00 77 1010.8
20260902093812 89 151 6.0 7.0 0.00 0.00 0.00 77 1010.8
20260902093312 89 94 3.0 5.0 0.00 0.00 0.00 77 1010.8
20260902092812 89 84 3.0 5.0 0.00 0.00 0.00 78 1011.2
20260902092312 89 116 4.0 5.0 0.00 0.00 0.00 77 1011.2
20260902091814 89 141 2.0 3.0 0.00 0.00 0.00 77 1010.8
20260902091312 89 99 4.0 7.0 0.00 0.00 0.00 76 1010.8
20260902090813 89 101 1.0 3.0 0.00 0.00 0.00 76 1011.2
20260902090312 89 105 4.0 5.0 0.00 0.00 0.00 76 1011.2
20260902085813 89 94 0.0 0.0 0.00 0.00 0.00 75 1010.8
20260902085312 90 156 5.0 7.0 0.00 0.00 0.00 75 1011.2
20260902084818 90 89 5.0 5.0 0.00 0.00 0.00 74 1011.2
20260902084312 90 144 5.0 10.0 0.00 0.00 0.00 74 1011.2
20260902083812 90 153 7.0 10.0 0.00 0.00 0.00 74 1011.2
20260902083312 91 117 0.0 3.0 0.00 0.00 0.00 74 1011.5
20260902082812 91 171 4.0 7.0 0.00 0.00 0.00 72 1011.5
20260902082313 91 143 5.0 5.0 0.00 0.00 0.00 71 1011.5
20260902081813 91 162 5.0 7.0 0.00 0.00 0.00 71 1011.9
20260902081313 91 148 5.0 7.0 0.00 0.00 0.00 71 1011.5
20260902080813 92 178 5.0 5.0 0.00 0.00 0.00 69 1011.9
20260902080312 92 119 3.0 5.0 0.00 0.00 0.00 69 1011.9
20260902075812 93 89 5.0 7.0 0.00 0.00 0.00 69 1011.9
20260902075314 93 162 5.0 7.0 0.00 0.00 0.00 68 1011.9
20260902074813 93 164 3.0 5.0 0.00 0.00 0.00 66 1011.5
20260902074312 93 159 3.0 5.0 0.00 0.00 0.00 67 1011.9
20260902073813 94 208 5.0 7.0 0.00 0.00 0.00 65 1011.9
20260902073312 94 173 8.0 10.0 0.00 0.00 0.00 63 1011.9
20260902072814 95 133 9.0 10.0 0.00 0.00 0.00 62 1011.9
20260902072312 95 180 7.0 10.0 0.00 0.00 0.00 63 1012.2
20260902071812 95 156 7.0 7.0 0.00 0.00 0.00 62 1011.9
20260902071312 95 219 9.0 12.0 0.00 0.00 0.00 63 1011.9
20260902070812 95 179 6.0 7.0 0.00 0.00 0.00 62 1011.9
20260902070312 95 181 3.0 5.0 0.00 0.00 0.00 62 1011.9
20260902065813 94 227 5.0 7.0 0.00 0.00 0.00 62 1012.2
20260902065313 94 254 1.0 3.0 0.00 0.00 0.00 65 1012.2
20260902064812 94 229 9.0 10.0 0.00 0.00 0.00 64 1012.5
20260902064312 94 217 10.0 12.0 0.00 0.00 0.00 66 1012.5
20260902063812 94 273 4.0 5.0 0.00 0.00 0.00 66 1012.2
20260902063313 94 166 3.0 5.0 0.00 0.00 0.00 70 1012.5
20260902062812 95 191 10.0 12.0 0.00 0.00 0.00 66 1012.5
20260902062313 95 154 11.0 15.0 0.00 0.00 0.00 64 1012.5
20260902061812 95 216 4.0 5.0 0.00 0.00 0.00 60 1012.9
20260902061312 95 201 1.0 3.0 0.00 0.00 0.00 58 1012.9
20260902060812 95 185 4.0 5.0 0.00 0.00 0.00 58 1012.9
20260902060312 95 234 7.0 10.0 0.00 0.00 0.00 59 1013.2
20260902055812 95 308 3.0 5.0 0.00 0.00 0.00 59 1013.2
20260902055312 95 222 5.0 7.0 0.00 0.00 0.00 59 1013.5
20260902054813 94 308 6.0 7.0 0.00 0.00 0.00 57 1013.5
20260902054312 94 168 1.0 3.0 0.00 0.00 0.00 62 1013.5
20260902053813 94 221 0.0 3.0 0.00 0.00 0.00 61 1013.5
20260902053312 94 221 5.0 7.0 0.00 0.00 0.00 62 1013.5
20260902052815 94 246 4.0 5.0 0.00 0.00 0.00 61 1013.5
20260902052312 94 156 6.0 7.0 0.00 0.00 0.00 61 1013.5
20260902051812 94 294 3.0 5.0 0.00 0.00 0.00 63 1014.2
20260902051312 94 270 3.0 5.0 0.00 0.00 0.00 62 1014.2
20260902050812 94 28 3.0 5.0 0.00 0.00 0.00 63 1014.2
20260902050312 93 156 7.0 7.0 0.00 0.00 0.00 63 1014.2
20260902045812 93 267 6.0 7.0 0.00 0.00 0.00 64 1014.2
20260902045312 93 214 3.0 5.0 0.00 0.00 0.00 63 1014.2
20260902044813 93 187 9.0 10.0 0.00 0.00 0.00 63 1014.2
20260902044312 93 191 0.0 3.0 0.00 0.00 0.00 63 1014.2
20260902043812 93 203 11.0 15.0 0.00 0.00 0.00 63 1014.2
20260902043312 92 163 2.0 3.0 0.00 0.00 0.00 64 1014.2
20260902042812 92 258 5.0 7.0 0.00 0.00 0.00 64 1014.6
20260902042317 93 262 4.0 5.0 0.00 0.00 0.00 62 1014.6
20260902041813 93 241 5.0 7.0 0.00 0.00 0.00 65 1014.6
20260902041313 93 150 3.0 3.0 0.00 0.00 0.00 65 1014.6
20260902040812 93 241 6.0 7.0 0.00 0.00 0.00 65 1014.6
20260902040312 93 185 10.0 12.0 0.00 0.00 0.00 64 1014.6
20260902035812 92 100 5.0 7.0 0.00 0.00 0.00 64 1014.6
20260902035312 92 129 9.0 10.0 0.00 0.00 0.00 64 1014.6
20260902034814 92 166 0.0 3.0 0.00 0.00 0.00 67 1014.9
20260902034312 92 136 5.0 7.0 0.00 0.00 0.00 66 1014.9
20260902033812 92 195 4.0 5.0 0.00 0.00 0.00 68 1014.9
20260902033313 92 137 7.0 10.0 0.00 0.00 0.00 66 1014.9
20260902032812 92 107 12.0 15.0 0.00 0.00 0.00 67 1015.2
20260902032313 92 202 6.0 7.0 0.00 0.00 0.00 68 1015.2
20260902031813 91 170 5.0 7.0 0.00 0.00 0.00 68 1015.2
20260902031320 91 101 3.0 5.0 0.00 0.00 0.00 70 1015.2
20260902030842 91 188 8.0 10.0 0.00 0.00 0.00 69 1014.9
20260902030314 91 167 7.0 10.0 0.00 0.00 0.00 69 1015.2
20260902025812 91 155 7.0 10.0 0.00 0.00 0.00 70 1015.2
20260902025313 91 148 6.0 10.0 0.00 0.00 0.00 69 1015.2
20260902024812 91 155 9.0 10.0 0.00 0.00 0.00 69 1015.2
20260902024313 90 143 2.0 3.0 0.00 0.00 0.00 69 1015.2
20260902023815 90 156 5.0 5.0 0.00 0.00 0.00 69 1015.2
20260902023312 89 150 5.0 7.0 0.00 0.00 0.00 68 1015.2
20260902022813 89 137 7.0 10.0 0.00 0.00 0.00 69 1015.2
20260902022312 89 152 0.0 3.0 0.00 0.00 0.00 70 1015.2
20260902021813 88 151 2.0 3.0 0.00 0.00 0.00 73 1014.9
20260902021312 88 142 3.0 3.0 0.00 0.00 0.00 72 1015.2
20260902020814 87 136 5.0 7.0 0.00 0.00 0.00 72 1015.2
20260902020312 87 136 5.0 7.0 0.00 0.00 0.00 72 1015.2
20260902015812 87 119 5.0 5.0 0.00 0.00 0.00 73 1015.6
20260902015314 87 182 4.0 5.0 0.00 0.00 0.00 72 1015.6
20260902014813 86 100 5.0 7.0 0.00 0.00 0.00 72 1015.6
20260902014312 86 97 6.0 7.0 0.00 0.00 0.00 74 1015.6
20260902013813 86 133 4.0 5.0 0.00 0.00 0.00 75 1015.6
20260902013312 86 123 5.0 5.0 0.00 0.00 0.00 74 1015.2
20260902012812 85 173 5.0 7.0 0.00 0.00 0.00 75 1015.6
20260902012312 84 138 3.0 5.0 0.00 0.00 0.00 76 1015.6
20260902011813 84 149 4.0 5.0 0.00 0.00 0.00 77 1015.6
20260902011312 83 155 3.0 5.0 0.00 0.00 0.00 76 1015.6
20260902010814 83 141 1.0 3.0 0.00 0.00 0.00 78 1015.9
20260902010315 82 224 3.0 5.0 0.00 0.00 0.00 79 1015.9
20260902005813 82 215 3.0 7.0 0.00 0.00 0.00 83 1015.9
20260902005312 82 218 5.0 7.0 0.00 0.00 0.00 86 1015.9
20260902004812 82 203 5.0 7.0 0.00 0.00 0.00 86 1015.9
20260902004312 83 196 12.0 15.0 0.00 0.00 0.00 87 1015.9
20260902003813 83 199 7.0 7.0 0.00 0.00 0.00 87 1015.9
20260902003312 83 204 7.0 7.0 0.00 0.00 0.00 88 1015.9
20260902002812 83 259 7.0 7.0 0.00 0.00 0.00 88 1015.9
20260902002315 82 206 3.0 5.0 0.00 0.00 0.00 88 1015.6
20260902001812 82 168 0.0 3.0 0.00 0.00 0.00 88 1015.2
20260902001312 82 117 0.0 0.0 0.00 0.00 0.00 89 1015.2
20260902000812 82 107 0.0 0.0 0.00 0.00 0.00 89 1015.2
20260902000312 81 136 0.0 0.0 0.00 0.00 0.00 90 1015.2
20260901235812 81 189 0.0 0.0 0.00 0.00 0.00 91 1014.9
20260901235313 81 154 0.0 0.0 0.00 0.00 0.00 92 1015.2
20260901234812 81 126 0.0 0.0 0.00 0.00 0.00 92 1014.9
20260901234312 81 104 0.0 0.0 0.00 0.00 0.00 92 1014.9
20260901233812 80 211 0.0 0.0 0.00 0.00 0.00 92 1014.6
20260901233313 80 209 0.0 0.0 0.00 0.00 0.00 92 1014.6
20260901232812 80 203 0.0 0.0 0.00 0.00 0.00 93 1014.6
20260901232312 81 190 0.0 0.0 0.00 0.00 0.00 92 1014.6
20260901231812 81 19 0.0 0.0 0.00 0.00 0.00 92 1014.2
20260901231314 81 3 0.0 0.0 0.00 0.00 0.00 92 1014.6
20260901230812 81 107 0.0 0.0 0.00 0.00 0.00 92 1014.2
20260901230312 81 357 0.0 0.0 0.00 0.00 0.00 92 1014.2
20260901225812 81 64 0.0 0.0 0.00 0.00 0.00 92 1014.2
20260901225313 81 190 0.0 0.0 0.00 0.00 0.00 92 1014.2
20260901224812 81 240 0.0 0.0 0.00 0.00 0.00 91 1013.9
20260901224312 81 233 0.0 0.0 0.00 0.00 0.00 91 1013.9
20260901223812 81 299 0.0 0.0 0.00 0.00 0.00 91 1014.2
20260901223313 81 208 0.0 0.0 0.00 0.00 0.00 91 1013.9
20260901222812 81 244 0.0 0.0 0.00 0.00 0.00 90 1013.5
20260901222312 81 40 0.0 0.0 0.00 0.00 0.00 90 1013.9
20260901221813 81 170 0.0 0.0 0.00 0.00 0.00 90 1013.9
20260901221312 81 73 0.0 0.0 0.00 0.00 0.00 90 1013.5
20260901220812 81 65 0.0 0.0 0.00 0.00 0.00 90 1013.5
20260901220312 81 167 0.0 0.0 0.00 0.00 0.00 90 1013.5
20260901215812 81 58 0.0 0.0 0.00 0.00 0.00 90 1013.5
20260901215313 81 91 0.0 0.0 0.00 0.00 0.00 91 1013.5
20260901214812 81 54 0.0 0.0 0.00 0.00 0.00 91 1013.5
20260901214313 81 27 0.0 0.0 0.00 0.00 0.00 91 1013.5
20260901213814 81 19 0.0 0.0 0.00 0.00 0.00 91 1013.2
20260901213312 81 126 0.0 0.0 0.00 0.00 0.00 91 1013.5
20260901212812 81 350 0.0 0.0 0.00 0.00 0.00 91 1013.5
20260901212313 81 150 0.0 0.0 0.00 0.00 0.00 92 1013.2
20260901211814 81 198 0.0 0.0 0.00 0.00 0.00 92 1013.2
20260901211312 81 72 0.0 0.0 0.00 0.00 0.00 92 1013.2
20260901210819 81 54 0.0 0.0 0.00 0.00 0.00 92 1013.2
20260901210314 81 77 0.0 0.0 0.00 0.00 0.00 93 1013.2
20260901205813 81 162 0.0 0.0 0.00 0.00 0.00 92 1013.5
20260901205313 81 234 0.0 0.0 0.00 0.00 0.00 92 1013.2
20260901204813 81 225 0.0 0.0 0.00 0.00 0.00 92 1013.2
20260901204312 81 185 0.0 0.0 0.00 0.00 0.00 92 1013.2
20260901203812 81 186 0.0 0.0 0.00 0.00 0.00 92 1013.2
20260901203313 81 196 0.0 0.0 0.00 0.00 0.00 92 1013.2
20260901202812 81 205 0.0 0.0 0.00 0.00 0.00 92 1013.5
20260901202315 81 112 0.0 0.0 0.00 0.00 0.00 92 1013.5
20260901201813 81 102 0.0 0.0 0.00 0.00 0.00 92 1013.5
20260901201313 82 110 0.0 0.0 0.00 0.00 0.00 92 1013.5
20260901200815 82 96 0.0 0.0 0.00 0.00 0.00 92 1013.2
20260901200314 82 36 0.0 0.0 0.00 0.00 0.00 92 1013.2
20260901195813 82 191 0.0 0.0 0.00 0.00 0.00 92 1013.5
20260901195313 82 290 0.0 0.0 0.00 0.00 0.00 91 1013.5
20260901194813 82 211 0.0 0.0 0.00 0.00 0.00 91 1013.5
20260901194312 82 188 0.0 0.0 0.00 0.00 0.00 91 1013.5
20260901193813 82 103 0.0 0.0 0.00 0.00 0.00 91 1013.5
20260901193313 82 111 1.0 3.0 0.00 0.00 0.00 91 1013.5
20260901192812 82 124 0.0 0.0 0.00 0.00 0.00 90 1013.5
20260901192313 82 106 0.0 0.0 0.00 0.00 0.00 90 1013.9
20260901191813 82 132 0.0 3.0 0.00 0.00 0.00 90 1013.5
20260901191316 82 148 1.0 3.0 0.00 0.00 0.00 90 1013.5
20260901190814 82 122 0.0 0.0 0.00 0.00 0.00 90 1013.5
20260901190313 82 118 0.0 0.0 0.00 0.00 0.00 90 1013.5
20260901185812 83 172 0.0 0.0 0.00 0.00 0.00 89 1013.9
20260901185312 83 196 0.0 0.0 0.00 0.00 0.00 89 1013.9
20260901184813 83 119 0.0 0.0 0.00 0.00 0.00 89 1013.9
20260901184314 83 182 0.0 0.0 0.00 0.00 0.00 89 1014.2
20260901183813 83 183 0.0 0.0 0.00 0.00 0.00 89 1014.2
20260901183312 83 119 0.0 0.0 0.00 0.00 0.00 89 1014.2
20260901182813 83 102 0.0 3.0 0.00 0.00 0.00 88 1014.2
20260901182312 83 158 1.0 3.0 0.00 0.00 0.00 88 1014.2
20260901181813 83 184 0.0 0.0 0.00 0.00 0.00 88 1014.6
20260901181316 83 187 0.0 0.0 0.00 0.00 0.00 88 1014.6
20260901180813 83 199 0.0 0.0 0.00 0.00 0.00 88 1014.6
20260901180313 83 106 0.0 0.0 0.00 0.00 0.00 88 1014.6
20260901175812 83 111 0.0 0.0 0.00 0.00 0.00 88 1014.6
20260901175313 83 348 0.0 0.0 0.00 0.00 0.00 88 1014.9
20260901174812 83 82 0.0 0.0 0.00 0.00 0.00 88 1014.6
20260901174313 83 166 0.0 0.0 0.00 0.00 0.00 87 1014.9
20260901173813 83 152 0.0 0.0 0.00 0.00 0.00 87 1014.9
20260901173313 83 177 0.0 0.0 0.00 0.00 0.00 87 1014.6
20260901172816 83 146 1.0 3.0 0.00 0.00 0.00 87 1014.6
20260901172312 83 128 0.0 0.0 0.00 0.00 0.00 87 1014.9
20260901171812 83 119 0.0 0.0 0.00 0.00 0.00 87 1014.9
20260901171314 83 175 0.0 0.0 0.00 0.00 0.00 87 1014.9
20260901170813 83 176 0.0 0.0 0.00 0.00 0.00 87 1015.2
20260901170312 83 207 0.0 0.0 0.00 0.00 0.00 87 1015.2
20260901165813 83 239 0.0 0.0 0.00 0.00 0.00 87 1015.2
20260901165313 83 155 0.0 0.0 0.00 0.00 0.00 87 1015.2
20260901164815 83 152 0.0 0.0 0.00 0.00 0.00 87 1014.9
20260901164312 83 181 0.0 0.0 0.00 0.00 0.00 87 1014.9
20260901163813 83 202 0.0 0.0 0.00 0.00 0.00 87 1014.9
20260901163312 83 206 0.0 0.0 0.00 0.00 0.00 87 1014.9
20260901162812 83 243 0.0 0.0 0.00 0.00 0.00 87 1014.9
20260901162313 84 235 0.0 0.0 0.00 0.00 0.00 86 1015.2
20260901161814 84 291 0.0 0.0 0.00 0.00 0.00 86 1014.9
20260901161313 84 272 0.0 0.0 0.00 0.00 0.00 86 1014.9
20260901160812 84 244 0.0 0.0 0.00 0.00 0.00 85 1014.6
20260901160313 84 138 0.0 0.0 0.00 0.00 0.00 85 1014.9
20260901155813 84 199 0.0 0.0 0.00 0.00 0.89 85 1014.9
20260901155312 84 185 0.0 0.0 0.00 0.00 0.89 85 1014.9
20260901154812 84 143 0.0 0.0 0.00 0.00 0.89 85 1014.9
20260901154312 84 183 0.0 0.0 0.00 0.00 0.89 85 1014.9
20260901153813 84 175 0.0 0.0 0.00 0.00 0.89 85 1014.9
20260901153312 84 174 0.0 0.0 0.00 0.00 0.89 85 1014.6
20260901152812 84 119 0.0 0.0 0.00 0.00 0.89 85 1014.9
20260901152315 84 130 0.0 3.0 0.00 0.00 0.89 84 1014.6
20260901151812 84 186 0.0 0.0 0.00 0.00 0.89 84 1014.6
20260901151312 84 208 2.0 3.0 0.00 0.00 0.89 84 1014.9
20260901150813 84 138 2.0 3.0 0.00 0.00 0.89 83 1014.9
20260901150313 84 143 0.0 0.0 0.00 0.00 0.89 83 1014.6
20260901145813 85 124 0.0 0.0 0.00 0.00 0.89 83 1014.6
20260901145312 85 248 0.0 0.0 0.00 0.00 0.89 83 1014.6
20260901144812 85 145 0.0 0.0 0.00 0.00 0.89 83 1014.6
20260901144313 85 263 0.0 0.0 0.00 0.00 0.89 82 1014.2
20260901143812 85 318 0.0 0.0 0.00 0.00 0.89 82 1014.2
20260901143312 85 318 0.0 0.0 0.00 0.00 0.89 82 1014.2
20260901142812 85 318 0.0 0.0 0.00 0.00 0.89 82 1014.2
20260901142314 85 318 0.0 0.0 0.00 0.00 0.89 81 1014.2
20260901141812 85 318 0.0 0.0 0.00 0.00 0.89 81 1013.9
20260901141313 85 318 0.0 0.0 0.00 0.00 0.89 81 1013.9
20260901140814 85 318 0.0 0.0 0.00 0.00 0.89 80 1013.9
20260901140312 85 331 0.0 0.0 0.00 0.00 0.89 80 1013.9
20260901135815 85 18 1.0 3.0 0.00 0.00 0.89 79 1014.2
20260901135312 85 38 0.0 0.0 0.00 0.00 0.89 79 1013.9
20260901134813 85 321 0.0 0.0 0.00 0.00 0.89 80 1013.9
20260901134313 85 225 0.0 0.0 0.00 0.00 0.89 80 1013.9
20260901133813 85 46 0.0 0.0 0.00 0.00 0.89 80 1013.5
20260901133313 85 91 0.0 0.0 0.00 0.00 0.89 80 1013.5
20260901132812 85 165 0.0 3.0 0.00 0.00 0.89 80 1013.5
20260901132313 85 77 0.0 3.0 0.00 0.00 0.89 80 1013.5
20260901131812 85 111 0.0 0.0 0.00 0.00 0.89 80 1013.5
20260901131313 86 97 1.0 3.0 0.00 0.00 0.89 80 1013.5
20260901130813 86 118 3.0 3.0 0.00 0.00 0.89 80 1013.5
20260901130313 86 120 4.0 5.0 0.00 0.00 0.89 80 1013.5
20260901125814 86 117 1.0 3.0 0.00 0.00 0.89 80 1013.2
20260901125314 86 120 0.0 0.0 0.00 0.00 0.89 78 1013.5
20260901124812 86 66 3.0 5.0 0.00 0.00 0.89 78 1013.2
20260901124312 86 51 1.0 3.0 0.00 0.00 0.89 78 1013.2
20260901123812 86 84 0.0 3.0 0.00 0.00 0.89 78 1013.5
20260901123312 86 99 3.0 5.0 0.00 0.00 0.89 78 1013.2
20260901122813 86 77 4.0 5.0 0.00 0.00 0.89 79 1013.2
20260901122312 86 75 3.0 5.0 0.00 0.00 0.89 79 1013.2
20260901121812 86 69 1.0 3.0 0.00 0.00 0.89 79 1013.2
20260901121313 86 50 5.0 7.0 0.00 0.00 0.89 79 1013.2
20260901120812 86 27 3.0 5.0 0.00 0.00 0.89 80 1012.9
20260901120312 86 69 2.0 3.0 0.00 0.00 0.89 80 1012.9
20260901115814 86 52 1.0 3.0 0.00 0.00 0.89 81 1012.9
20260901115312 86 53 0.0 3.0 0.00 0.00 0.89 82 1013.2
20260901114813 86 337 0.0 0.0 0.00 0.00 0.89 82 1012.9
20260901114312 86 33 5.0 5.0 0.00 0.00 0.89 83 1012.9
20260901113812 86 3 4.0 5.0 0.00 0.00 0.89 83 1012.9
20260901113313 87 9 6.0 7.0 0.00 0.00 0.89 82 1012.5
20260901112813 87 26 5.0 7.0 0.00 0.00 0.89 82 1012.9
20260901112312 87 19 3.0 5.0 0.00 0.00 0.89 82 1012.5
20260901111812 87 26 2.0 3.0 0.00 0.00 0.89 82 1012.9
20260901111312 87 23 0.0 0.0 0.00 0.00 0.89 82 1012.5
20260901110812 87 9 0.0 0.0 0.00 0.00 0.89 82 1012.9
20260901110313 87 14 3.0 3.0 0.00 0.00 0.89 82 1012.5
20260901105812 87 21 0.0 3.0 0.00 0.00 0.89 82 1012.9
20260901105313 87 4 0.0 0.0 0.00 0.00 0.89 82 1012.9
20260901104812 87 92 3.0 5.0 0.00 0.00 0.89 82 1012.9
20260901104313 87 50 0.0 3.0 0.00 0.00 0.89 81 1012.5
20260901103812 87 117 0.0 0.0 0.00 0.00 0.89 81 1012.2
20260901103313 88 61 0.0 0.0 0.00 0.00 0.89 81 1012.2
20260901102812 88 90 2.0 3.0 0.00 0.00 0.89 81 1012.2
20260901102313 88 31 0.0 3.0 0.00 0.00 0.89 79 1011.9
20260901101812 88 111 0.0 3.0 0.00 0.00 0.89 79 1012.2
20260901101312 88 103 2.0 3.0 0.00 0.00 0.89 79 1012.2
20260901100818 88 144 3.0 5.0 0.00 0.00 0.89 79 1012.2
20260901100313 88 140 0.0 3.0 0.00 0.00 0.89 79 1012.2
20260901095812 88 156 2.0 3.0 0.00 0.00 0.89 79 1012.2
20260901095312 88 169 3.0 5.0 0.00 0.00 0.89 79 1012.2